Location: Makakahi
(40.6833°S, 175.6000°E)
Time: 06:46:26
(UTC+00:00)

DMSP B5D2-8 - Pass Details

Date: 14 January 2026
Orbit: 830 x 841 km, 98.8° (Epoch: 10 February)

Event Time Altitude Azimuth Distance (km) Brightness Sun altitude
Rises 08:30:18 0° 183° (S) 3,418 8.5 -7.3°
Reaches altitude 10° 08:33:26 10° 201° (SSW) 2,478 8.2 -7.7°
Maximum altitude 08:36:54 17° 241° (WSW) 1,996 8.0 -8.3°
Drops below altitude 10° 08:40:22 10° 280° (W) 2,465 7.8 -8.8°
Sets 08:43:29 0° 299° (WNW) 3,392 8.2 -9.3°
